GFSFLT2_con_3kmhel_042.txt.gz
Helicity
10 44 94 101 81 73 60 53 54 52 49 38 25 17 22 24 36 31 27 22 20 17 15 20 25 25 27 20 18 17 25 35
20 69 51 71 82 70 55 53 67 48 30 14 9 4 10 25 40 36 35 36 33 26 20 19 27 24 19 23 37 20 7 40
-7 -10 -13 45 57 50 60 55 40 29 6 -12 -33 -16 -6 46 50 42 40 36 31 30 22 19 61 53 25 66 61 43 29 42
-40 -33 -45 -1 43 4 24 12 -10 -13 -18 -8 -16 14 47 44 30 41 38 35 39 24 21 60 75 85 94 86 58 39 33 31
115 165 167 95 48 28 5 -28 -11 -17 6 19 12 47 22 60 20 26 19 14 63 71 87 128 89 85 59 76 49 40 31 43
79 96 72 45 -7 -29 -9 1 24 36 33 54 29 36 31 54 100 118 86 143 124 142 155 161 127 88 84 78 63 62 25 29
95 64 99 44 46 81 144 152 116 64 82 56 97 102 89 93 161 168 186 217 211 165 143 117 110 87 78 76 75 58 24 44
101 63 49 56 201 229 242 187 109 88 66 54 65 80 89 175 196 213 207 140 149 141 127 108 89 73 60 66 79 54 43 85
81 73 137 255 241 211 242 239 145 90 40 44 104 127 212 224 184 174 166 144 121 122 107 99 81 56 45 63 67 68 64 80
90 160 241 261 266 232 189 148 161 170 80 73 106 140 140 164 165 144 115 95 110 92 85 63 56 55 54 61 95 63 73 66
239 279 267 227 181 154 172 211 319 169 174 70 117 100 108 99 114 97 80 88 103 110 82 87 90 80 70 81 100 87 41 48
262 244 239 219 208 207 174 185 186 163 105 75 54 53 58 53 69 71 37 81 101 91 57 40 42 57 79 105 98 100 97 115
218 241 208 203 205 175 96 96 143 106 77 43 28 49 81 98 159 106 96 106 121 97 116 119 86 97 119 93 87 110 127 147
279 273 181 116 109 70 88 120 96 71 54 44 68 104 113 77 130 171 197 147 123 163 169 132 144 151 128 128 140 126 141 172
260 236 130 26 101 87 129 116 76 98 123 91 172 123 117 140 159 168 150 157 160 143 137 140 185 168 132 180 193 235 196 156
170 128 85 57 93 105 152 120 122 97 125 113 198 150 145 172 198 182 170 158 139 140 154 152 172 195 184 188 222 231 262 227
99 47 90 153 80 164 115 101 207 235 237 355 310 171 178 121 122 165 223 235 218 192 183 188 199 220 225 242 273 236 194 231
69 77 145 238 140 205 136 200 294 290 298 303 163 250 276 258 317 320 274 237 196 164 149 145 145 167 197 196 246 232 189 200
110 143 286 274 201 201 238 306 337 362 316 277 165 278 276 289 277 223 183 160 147 146 149 152 156 171 169 151 171 167 193 185
167 174 304 255 236 251 321 365 284 239 162 255 240 260 260 247 213 192 164 150 140 134 139 138 136 186 148 136 133 158 171 156

GFSFLT2_con_3kmhel_045.txt.gz
Helicity
117 107 -10 68 67 72 71 59 41 32 39 32 23 26 34 34 29 32 32 33 32 21 11 14 15 17 41 65 48 43 45 44
38 -51 68 73 63 78 68 43 29 30 21 4 7 23 25 30 25 26 35 34 28 21 17 38 33 16 40 57 51 33 52 31
-60 12 31 48 29 48 50 31 18 18 1 -1 16 -9 -3 12 25 36 34 35 29 12 29 55 50 34 26 47 54 24 27 11
-64 22 7 36 32 41 17 1 -21 -9 -11 -23 -41 -16 2 5 13 28 39 55 50 42 60 71 85 74 63 59 33 31 33 32
-27 -21 -22 38 14 -20 -40 -33 -14 24 -0 -8 -15 -11 28 31 40 6 65 65 106 127 124 114 118 97 89 72 71 71 43 40
41 31 -14 -6 -17 -36 -34 -29 1 54 61 49 40 30 59 63 90 124 243 176 192 158 128 115 109 107 116 116 104 77 57 54
109 79 23 -7 8 54 95 123 142 127 100 106 77 131 135 148 199 214 216 200 178 157 141 133 125 111 102 110 89 86 70 76
139 108 68 209 197 249 258 246 173 125 113 121 112 107 204 199 206 212 175 161 161 146 136 119 118 100 93 82 87 75 57 64
96 124 212 233 268 276 217 160 112 125 200 169 153 131 176 212 198 173 135 135 128 137 123 119 108 83 73 73 89 66 59 51
97 164 216 229 234 238 203 187 167 149 210 177 163 113 155 194 169 153 128 116 107 98 87 63 62 85 94 103 95 77 54 48
261 235 222 214 190 186 191 194 207 158 187 166 37 64 117 172 141 104 111 108 101 71 57 50 57 47 37 46 52 54 51 50
314 268 249 231 234 233 237 198 160 112 120 80 91 178 148 108 81 70 122 98 86 61 69 63 45 22 49 54 37 33 79 82
359 300 271 281 245 229 184 129 82 109 77 97 113 100 109 74 65 64 91 113 82 84 70 64 46 54 64 42 34 28 76 115
331 291 244 221 199 165 110 120 104 107 77 76 89 88 100 132 142 144 121 95 112 104 102 95 90 95 90 78 84 87 114 115
296 274 165 170 143 109 145 132 181 151 100 95 84 125 117 89 114 132 109 107 110 102 101 109 126 115 123 151 148 163 155 135
253 193 139 145 100 156 165 175 195 137 116 132 184 175 156 83 167 155 145 148 166 144 149 138 148 152 159 173 230 254 236 227
162 128 98 158 78 161 145 151 164 197 193 228 247 216 172 97 293 304 289 261 228 202 173 154 154 173 190 225 250 277 250 286
94 116 119 74 125 184 157 212 280 343 351 340 278 227 376 439 367 327 309 288 239 196 177 166 154 165 188 228 274 297 290 282
197 120 125 142 197 219 266 339 390 410 353 334 370 468 449 343 262 270 221 184 168 163 153 146 147 167 171 211 210 236 244 210
191 191 262 276 321 352 395 426 425 409 422 463 503 414 322 231 178 182 172 162 148 145 144 163 184 187 203 192 196 173 161 152

GFSFLT2_con_3kmhel_048.txt.gz
Helicity
233 285 137 5 20 59 49 33 23 18 16 15 20 25 32 38 49 53 53 48 43 51 56 50 42 52 56 60 67 50 1 14
135 225 15 16 30 42 31 15 19 10 2 10 16 21 26 38 49 50 49 40 64 78 64 61 63 49 47 33 45 47 1 22
96 34 -29 -29 21 6 12 8 -9 -5 -1 -0 6 13 31 41 39 50 53 61 87 91 93 90 88 83 67 48 43 21 26 9
-103 -97 -31 7 -0 -23 -33 -27 -24 -4 -17 -11 -0 9 26 41 50 78 81 100 104 119 136 134 112 87 66 71 43 51 54 28
-92 -26 27 12 3 -25 -36 -0 3 -18 -9 3 14 12 72 55 82 68 86 136 130 138 129 123 128 106 109 89 78 81 67 51
1 23 11 -9 -20 -11 7 14 17 9 31 -13 -3 14 51 85 105 119 146 131 161 139 126 128 127 116 117 123 115 95 76 75
17 23 -4 -12 37 24 8 55 46 69 70 105 92 102 118 122 151 188 193 155 148 139 126 132 127 114 122 116 107 94 88 85
43 12 -33 7 33 44 64 65 72 87 120 131 157 193 183 175 182 191 203 192 144 123 116 119 112 101 106 108 119 96 88 82
85 65 70 98 99 94 90 102 90 122 133 153 206 221 220 206 195 218 202 179 158 129 120 102 116 100 81 92 95 89 87 91
192 153 157 160 155 161 159 147 151 159 166 164 209 226 219 196 164 178 180 166 112 105 79 85 49 20 24 65 68 63 62 87
236 212 211 206 200 204 197 188 201 176 170 179 199 203 151 126 146 177 196 142 116 87 58 12 13 21 34 37 35 21 52 89
240 207 220 237 249 261 248 236 212 180 147 142 136 133 129 145 203 180 137 130 117 68 34 38 22 16 -0 2 1 1 67 81
216 245 224 264 252 250 224 221 180 135 108 131 135 130 135 160 158 145 126 97 54 46 43 34 43 29 22 26 -0 12 73 69
213 222 216 206 227 236 215 191 114 77 115 137 136 129 128 139 121 65 62 69 71 70 72 71 48 54 59 49 81 70 71 79
243 227 223 206 226 261 267 239 162 168 151 118 102 112 113 124 92 122 65 115 89 87 85 89 74 64 81 117 128 141 133 97
320 289 225 217 232 253 268 216 249 144 137 136 153 134 136 129 135 159 129 163 171 121 109 84 85 94 108 120 157 196 188 166
348 314 220 187 223 223 186 177 194 189 203 192 169 162 224 312 325 264 278 256 187 171 145 131 99 106 129 132 156 196 213 214
348 314 207 142 187 163 146 186 205 235 263 245 227 403 426 440 412 361 357 279 227 196 167 154 157 150 156 159 182 210 234 233
276 228 185 163 165 128 120 180 226 244 284 309 423 541 488 411 372 257 252 216 174 153 163 168 165 165 167 170 175 195 226 233
245 217 169 167 156 143 159 234 282 332 413 481 566 568 608 290 545 288 239 144 140 137 128 134 158 153 156 162 159 183 208 222

GFSFLT2_con_3kmhel_051.txt.gz
Helicity
245 204 99 75 37 39 -3 57 27 18 5 17 33 29 42 45 50 62 67 78 73 81 90 75 67 82 79 53 42 38 15 15
263 191 222 71 32 10 54 26 11 -28 -8 9 20 36 35 46 69 83 99 95 105 108 114 109 86 88 70 57 63 64 42 34
212 198 234 117 -16 -19 -5 -13 -3 -5 -15 14 32 39 68 84 86 131 120 112 114 117 116 109 96 84 81 94 85 35 42 27
77 295 176 -7 -58 -53 -16 5 -4 -39 27 31 68 78 80 95 118 113 111 115 154 148 133 132 100 60 65 78 53 64 60 52
-30 -55 -178 -120 -11 27 7 -24 -61 26 11 63 74 92 104 102 89 86 88 129 131 129 125 113 110 97 88 75 89 89 81 90
-135 -76 -52 5 2 -16 -12 -33 -1 15 12 48 55 88 104 95 86 90 115 124 160 154 139 115 129 121 111 116 112 102 97 88
11 27 47 16 -2 -14 -32 -27 -2 24 -8 14 48 72 92 116 152 143 152 153 157 185 150 130 114 109 117 124 125 124 112 89
34 40 20 10 20 -5 -4 7 47 46 48 46 78 115 149 170 184 198 188 170 175 186 153 113 107 116 123 109 104 116 97 87
35 52 49 64 51 21 12 36 76 83 82 101 124 167 205 207 224 218 202 196 210 185 146 118 130 93 99 75 70 86 88 84
80 60 59 43 30 24 41 69 97 105 101 130 167 199 232 257 262 215 198 214 189 142 101 113 95 55 11 12 42 72 65 60
83 64 71 38 33 66 88 119 109 110 140 168 188 218 235 257 231 204 206 185 137 95 90 54 16 7 6 -5 11 44 23 45
90 68 72 79 112 142 151 162 165 159 166 173 194 211 231 256 228 202 160 144 114 90 57 9 23 12 -22 -40 7 21 51 46
162 149 139 174 208 227 214 204 211 190 165 161 178 218 222 218 188 154 138 148 124 71 10 36 35 4 -10 18 -41 -17 63 69
196 190 230 209 228 238 223 235 218 202 178 163 189 195 190 178 154 135 134 161 114 77 30 38 33 29 25 16 70 70 62 52
228 199 220 230 232 293 276 300 266 236 206 193 183 158 152 137 132 150 165 116 114 77 66 82 64 40 68 63 92 114 137 69
221 224 217 196 257 276 315 296 295 200 197 196 175 150 138 159 205 200 166 163 136 113 148 82 51 103 63 46 77 127 139 165
238 251 239 222 279 243 257 253 183 144 215 206 193 187 230 231 253 283 235 187 169 142 185 152 93 75 74 92 104 120 135 168
274 312 286 252 343 280 250 233 174 184 238 240 240 276 311 316 322 363 407 202 316 258 181 180 115 102 87 101 124 140 157 155
342 284 254 263 319 311 218 161 152 187 229 245 333 376 351 377 459 405 306 250 391 424 233 219 150 129 114 125 125 136 160 178
358 293 239 253 249 189 127 130 152 165 212 304 359 424 474 550 471 528 471 397 260 236 179 209 127 125 117 107 117 126 140 150

GFSFLT2_con_3kmhel_057.txt.gz
Helicity
287 672 665 375 218 131 129 141 80 111 99 136 101 112 73 55 53 54 53 72 93 81 85 82 66 60 61 51 30 18 18 7
219 175 47 132 49 36 144 123 74 58 116 149 121 94 82 88 91 86 85 91 78 101 84 72 81 86 63 43 34 25 27 26
387 459 398 237 384 71 47 46 41 108 144 120 107 66 68 50 84 103 115 117 127 106 105 124 117 92 71 67 43 26 35 29
167 225 328 473 523 224 168 30 73 106 100 97 79 68 45 72 84 109 136 145 124 109 119 113 61 37 50 64 33 40 48 50
175 267 232 236 202 82 -95 -33 35 70 75 94 85 78 63 68 64 73 77 87 79 98 90 65 46 42 43 37 49 56 53 52
136 105 40 -35 -23 -110 -55 -18 32 73 80 69 65 64 55 50 70 69 82 83 109 98 80 66 76 60 48 58 65 58 53 45
-20 -7 -65 -107 -69 -54 -36 27 69 75 27 50 46 56 64 76 87 95 108 117 100 91 91 89 64 67 67 77 79 75 61 52
-201 -176 -105 -12 31 -21 -22 -11 -27 -18 18 56 41 50 82 92 111 127 139 118 116 112 94 69 71 67 78 84 76 70 76 79
-163 -9 -3 -33 -45 -31 -13 -46 47 53 43 -7 9 40 83 117 145 141 155 156 157 127 94 85 86 87 85 77 78 75 80 78
-28 -20 -4 -23 -39 -47 29 12 18 31 16 -6 19 64 116 145 162 161 175 179 152 126 112 106 101 93 82 90 72 41 66 75
38 18 15 9 8 7 -9 -10 -12 9 26 39 54 93 132 151 156 177 201 187 146 127 123 108 115 116 105 57 47 31 40 62
12 13 25 25 13 12 -1 -28 -4 17 27 41 70 92 123 135 168 203 204 184 159 136 139 156 130 92 48 22 3 31 51 82
26 16 6 -1 10 -3 -15 8 24 36 49 55 73 106 140 154 199 227 202 171 165 174 173 139 111 86 47 26 17 0 41 88
65 46 30 32 24 29 36 47 39 59 97 100 100 132 148 164 217 220 215 219 205 175 155 145 136 95 36 31 35 83 85 60
72 57 47 52 57 81 106 105 76 94 118 127 123 103 131 160 205 227 238 234 216 213 212 177 124 103 56 11 42 94 193 117
9 38 47 59 85 97 127 128 129 139 180 170 136 132 163 187 223 259 255 268 283 262 224 184 152 103 94 63 120 142 144 157
24 47 72 91 127 131 160 156 148 164 208 175 179 160 177 228 254 272 294 275 247 257 251 252 171 142 23 100 149 188 159 167
67 78 82 105 129 161 147 122 153 188 210 234 205 215 208 229 250 257 283 300 344 366 367 190 61 115 91 82 144 169 173 182
91 99 102 141 170 196 178 196 202 213 231 246 232 251 239 237 255 303 338 391 411 433 480 110 147 153 124 132 155 150 155 171
141 142 156 205 229 244 199 187 249 221 221 259 217 232 205 252 304 358 498 496 593 383 229 94 207 295 118 137 150 156 160 147

GFSFLT2_con_3kmhel_060.txt.gz
Helicity
625 847 761 555 368 196 66 136 153 188 177 115 150 116 89 80 79 85 90 83 72 63 57 53 37 29 34 27 -7 -40 1 6
401 517 385 37 3 120 54 101 164 244 161 136 143 103 80 75 72 69 73 78 72 75 81 46 29 43 48 22 -11 -57 7 10
351 313 266 475 39 42 29 -0 137 116 114 106 58 47 44 9 89 67 88 99 99 86 67 44 59 71 42 -5 -46 10 16 17
292 235 267 200 132 202 135 -14 -1 44 100 71 63 42 24 61 78 106 115 112 95 78 33 -10 -10 18 16 -22 19 19 25 25
245 217 121 165 289 239 136 54 1 -37 49 36 59 47 59 45 53 67 60 63 55 30 14 49 57 34 34 21 21 17 25 34
129 115 190 253 250 171 143 162 -10 -43 -29 55 51 58 44 41 33 40 39 29 55 52 75 82 59 37 35 36 33 32 37 45
155 140 71 41 10 39 5 -80 -37 -43 30 70 49 30 42 38 46 42 47 57 72 87 71 58 41 40 47 49 50 50 45 50
-2 -36 -73 -57 -70 -73 -63 -50 -18 -0 -9 -16 27 36 40 43 57 59 64 72 91 74 64 51 56 60 63 60 57 57 68 66
-47 -78 -62 -58 -32 14 -2 -11 -12 -23 -24 53 36 34 37 53 66 75 84 102 104 97 77 71 68 71 78 65 61 61 71 71
-63 2 13 11 1 -23 -30 -60 -51 -58 -32 3 29 39 51 73 82 90 103 124 116 95 74 83 86 83 77 64 57 48 50 70
1 -8 -19 -21 -38 -51 -56 -28 -50 -23 5 3 19 42 65 85 87 97 126 140 126 98 101 96 98 85 69 69 57 36 39 57
-11 -13 -13 -31 -67 -68 -74 -63 -52 -18 -3 18 37 49 66 83 90 120 132 146 137 127 134 114 105 106 87 80 54 11 6 34
23 8 -17 -58 -66 -57 -51 -30 -9 7 22 25 54 60 67 92 100 125 139 151 169 156 162 141 136 127 76 51 61 -2 -1 23
34 27 14 -4 -36 -30 -28 -7 1 10 28 39 52 60 76 108 91 129 162 180 188 193 177 181 181 143 113 60 54 96 75 32
8 5 -4 -7 -18 -11 -3 4 9 33 39 57 72 89 93 87 107 142 176 186 193 205 198 181 177 163 130 96 134 105 126 99
-9 -12 -8 -3 14 16 21 34 28 33 44 61 70 87 104 128 130 172 200 182 227 216 199 196 203 219 223 129 66 62 101 150
-24 -10 -6 9 30 38 46 29 34 74 85 84 94 125 165 176 157 214 225 223 231 240 252 259 279 284 271 118 39 68 122 137
9 23 30 41 49 64 75 76 91 143 100 89 100 122 135 166 212 231 201 201 256 255 307 357 368 298 182 102 66 123 135 144
36 52 66 94 105 100 117 119 116 109 89 113 138 161 209 255 286 232 203 220 233 341 370 326 271 218 161 121 139 153 150 167
71 88 80 95 116 114 147 140 109 128 174 158 185 262 294 302 243 176 199 249 351 333 448 233 190 158 146 172 152 155 166 154

GFSFLT2_con_3kmhel_063.txt.gz
Helicity
287 176 346 488 461 332 146 110 133 139 155 150 160 158 131 121 96 86 66 54 50 40 35 29 19 16 -8 -31 -30 -25 -3 18
508 579 484 365 229 139 173 78 66 103 128 185 179 132 115 112 101 86 83 75 57 36 37 39 31 3 -28 -33 -42 -70 -2 40
546 667 399 251 145 170 120 -20 -16 62 108 125 113 59 61 34 88 87 89 72 49 37 46 32 20 -20 -22 -25 -40 -13 2 34
384 276 338 273 61 65 81 71 -38 -1 37 49 67 69 40 56 99 100 87 72 46 43 12 -2 -64 6 11 -29 8 -12 6 29
175 178 177 144 177 86 102 6 -7 -5 10 43 52 57 83 63 54 42 33 37 33 22 -0 -30 41 34 24 11 8 4 7 30
308 223 199 153 114 67 131 48 -23 15 -23 9 32 30 20 46 21 30 25 14 29 12 40 56 57 43 29 28 24 18 19 38
110 106 40 62 108 146 57 -16 -42 11 -78 -0 -2 19 36 19 36 29 9 38 27 47 57 54 37 32 32 30 29 34 34 44
124 100 60 14 -8 20 8 -50 -71 -23 -16 -2 -5 -10 34 34 42 30 40 36 49 58 54 42 40 46 43 41 40 36 39 32
117 25 -68 -71 -53 -24 -11 -155 -41 -8 -17 -29 -3 4 45 56 44 53 48 46 80 92 70 50 55 61 65 49 56 42 47 29
-22 -69 -68 -37 -21 -62 -53 -8 -27 -23 -34 -43 -32 -23 31 43 47 74 71 83 107 96 59 71 73 69 82 72 65 60 56 34
-32 -6 -7 4 -24 -12 -18 -41 -15 -27 -39 -43 -24 15 47 51 74 59 108 88 118 91 89 84 100 81 79 69 63 56 83 38
2 -7 5 -3 -34 -27 -34 -45 -33 -47 -42 -39 26 30 65 69 45 84 85 108 125 102 96 97 108 101 86 101 95 105 62 65
2 15 12 -9 -24 -31 -33 -31 -36 -33 -23 13 31 59 76 42 59 80 82 119 110 117 113 130 137 137 104 82 96 148 58 46
9 12 11 -8 -12 -16 -25 -22 -8 -5 7 41 55 80 71 70 77 102 106 142 144 143 133 140 142 141 124 151 103 157 122 113
26 25 25 3 -14 -17 -21 -20 -12 3 16 40 65 81 70 67 68 137 143 159 199 167 149 143 162 175 157 200 196 226 210 159
15 14 10 16 2 -9 4 10 28 33 31 66 100 77 80 58 83 139 152 159 233 196 157 156 155 215 202 180 201 223 154 151
16 10 -0 -1 25 -18 29 17 28 51 57 88 118 94 87 110 177 252 212 211 221 262 192 158 192 200 327 256 203 134 79 102
13 12 21 20 45 51 34 68 46 76 110 188 151 128 132 123 182 203 171 237 281 280 208 190 336 290 277 176 170 144 140 152
35 29 30 47 49 59 69 69 71 62 123 118 82 133 133 134 169 250 287 294 274 219 232 340 301 248 223 161 97 146 132 128
64 64 51 66 77 78 53 58 92 105 185 320 193 270 157 165 200 279 330 307 247 272 355 351 277 358 347 152 194 144 120 165

GFSFLT2_con_3kmhel_069.txt.gz
Helicity
221 288 311 359 109 631 396 310 271 196 134 116 130 114 108 99 80 56 39 36 31 23 23 -3 43 75 136 192 135 43 21 -13
283 248 264 244 291 46 234 111 222 216 213 196 173 123 108 94 83 56 39 32 26 32 -4 32 58 101 124 175 150 104 14 -28
280 246 260 194 311 279 73 84 59 119 172 194 165 132 107 96 60 47 32 22 37 -9 20 26 47 77 77 131 76 21 15 -24
189 234 193 163 162 142 101 90 164 119 120 161 128 114 91 76 56 55 49 25 26 16 26 24 46 43 28 91 64 25 8 -9
134 199 116 123 72 127 36 -6 98 -45 53 90 87 91 74 74 50 53 28 20 8 18 15 1 11 21 36 58 58 34 24 11
178 148 127 157 154 112 48 7 -28 23 14 42 49 64 58 27 56 14 23 10 14 9 -8 6 34 32 27 40 51 32 30 13
184 212 157 146 243 181 120 103 25 50 21 20 36 49 -1 65 24 17 16 18 6 3 21 28 29 23 19 36 42 58 37 23
170 176 202 146 94 107 176 158 33 -22 14 -7 -30 -25 -30 7 5 10 16 -9 19 25 31 21 18 22 27 36 40 58 45 32
153 97 76 97 97 206 204 207 18 -4 -15 -22 -38 -77 -6 21 27 38 -4 17 50 48 47 31 27 31 35 37 40 64 77 48
86 74 94 102 40 61 61 1 -31 -20 44 -11 -98 -44 6 58 0 -19 1 46 69 74 75 54 42 51 40 39 46 61 66 95
110 73 87 68 73 7 -18 -22 27 -77 -127 -155 -49 -11 -37 -21 -4 23 66 104 135 124 92 83 71 81 73 70 83 93 84 92
10 0 11 -16 -70 -13 6 -43 -87 -146 -121 -78 -50 -45 -25 6 29 71 126 145 154 145 122 93 104 106 113 146 139 120 99 122
-50 -60 -70 -96 -92 -76 -129 -151 -112 -97 -85 -69 -43 -17 14 43 90 119 141 172 161 149 160 131 144 144 192 189 154 126 164 166
-45 -57 -80 -101 -69 -58 -84 -58 -57 -54 -61 -43 -6 -1 39 97 143 146 139 167 159 157 184 183 170 221 251 231 244 239 223 211
-41 -54 -62 -62 -33 -40 -65 -48 -56 -55 -60 -37 -3 69 89 133 147 142 172 181 148 177 198 212 229 272 244 257 266 276 258 237
3 -40 -45 -12 -1 4 -13 1 2 -11 -7 5 70 140 144 151 172 176 244 242 229 192 205 249 289 240 345 296 335 293 313 302
77 53 66 38 21 41 13 19 36 27 8 13 104 168 201 167 181 183 204 249 223 225 316 298 378 325 556 410 406 312 143 197
109 83 68 35 -8 -28 30 63 63 97 118 117 159 236 238 191 209 265 231 281 281 273 331 370 369 398 358 387 326 352 189 200
130 95 66 66 28 6 12 125 146 134 129 149 223 263 274 193 251 297 286 293 301 298 297 393 521 466 503 416 451 372 258 266
213 134 119 164 164 124 43 122 208 212 198 268 341 379 307 228 291 265 303 304 318 332 377 430 468 502 360 388 321 282 248 262

GFSFLT2_con_3kmhel_072.txt.gz
Helicity
234 232 227 222 131 254 322 196 182 229 210 172 139 132 122 105 88 79 75 73 76 67 88 132 123 100 64 40 24 14 -27 -31
205 202 240 162 171 119 308 245 107 197 199 170 163 133 117 105 90 76 72 61 60 61 76 130 187 157 90 62 36 16 -20 -28
187 156 217 219 239 410 167 105 61 136 221 202 189 141 126 103 81 78 64 52 49 78 110 119 186 182 74 61 29 -33 -26 -35
154 158 175 207 278 296 317 237 134 137 208 226 171 138 113 85 84 70 67 64 75 98 100 91 134 105 42 54 12 -12 -33 -38
168 164 135 123 61 59 25 103 75 162 143 136 150 151 120 125 106 73 60 56 49 48 42 48 76 76 60 34 20 6 -17 -28
146 128 101 85 70 62 89 65 8 156 202 172 109 151 89 66 43 47 39 25 36 17 28 41 53 52 49 28 25 14 -4 -13
109 67 74 28 70 61 34 36 118 52 29 -6 30 37 27 50 18 27 25 48 5 20 22 22 37 54 59 40 23 25 15 -1
116 80 55 23 69 66 61 117 153 45 -16 -26 15 19 18 34 20 3 32 22 14 12 3 20 33 44 54 45 25 23 21 14
110 103 125 114 122 93 136 112 162 29 -24 -20 -10 -28 38 -10 25 5 19 24 32 28 23 33 38 36 39 39 51 40 43 26
82 101 81 47 63 46 79 106 181 116 28 -10 -21 -19 11 -16 -6 -9 40 -10 28 45 55 37 27 27 42 46 60 65 47 55
24 -7 3 21 60 78 137 169 127 53 7 -22 -40 -19 -100 -67 -72 40 -13 38 34 51 69 76 59 27 44 61 73 81 93 89
-3 24 47 39 50 125 159 220 53 31 -74 -100 -77 -103 -86 -49 -55 -24 29 65 67 109 122 90 91 86 79 87 99 107 124 144
-18 29 12 14 3 57 28 -13 -46 -67 -73 -102 -117 -115 -80 -51 -8 19 49 106 127 133 145 125 107 126 170 146 143 123 130 149
33 75 40 25 -52 -57 -46 31 -20 -72 -101 -143 -136 -97 -53 -8 43 71 109 138 167 185 199 179 135 190 211 216 210 193 174 180
-52 -62 -78 -93 -93 -100 -61 -68 -136 -175 -163 -141 -116 -83 -31 35 79 124 149 158 162 168 185 192 190 213 287 372 323 207 260 306
-102 -101 -85 -128 -138 -149 -154 -149 -159 -149 -138 -107 -90 -38 1 37 65 119 165 160 179 191 194 212 230 224 328 370 375 319 368 262
-65 -58 -44 -74 -88 -78 -83 -100 -88 -77 -57 -50 -43 -23 24 84 108 134 188 186 190 209 227 214 212 268 418 426 456 423 480 377
23 -14 -28 -24 -41 -43 -25 -5 -32 -35 -6 9 15 27 47 85 126 142 172 209 217 213 224 232 261 349 417 497 497 461 412 365
104 63 27 13 19 26 35 34 19 32 56 56 104 101 87 112 159 184 223 218 236 261 259 283 299 312 397 432 465 432 273 324
160 130 95 85 90 92 82 52 30 2 27 57 75 124 147 181 210 262 277 232 255 294 319 296 305 317 340 345 337 284 294 271

GFSFLT2_con_3kmhel_075.txt.gz
Helicity
214 198 219 192 13 -27 77 56 126 128 173 187 176 191 148 160 125 134 137 161 143 112 86 54 47 35 36 12 -4 3 -15 -3
271 206 95 278 174 271 76 375 177 133 99 167 214 196 179 108 105 124 141 158 167 131 83 34 39 48 29 9 6 8 -9 -3
187 191 190 236 144 164 280 125 191 232 137 255 364 250 132 108 109 121 127 145 180 147 114 74 45 45 24 19 18 -31 -13 -17
90 135 167 288 201 193 366 206 202 92 109 227 232 200 130 110 95 96 115 129 151 162 127 111 62 42 26 33 -0 -16 -19 -22
111 106 149 216 259 303 320 148 162 147 128 192 187 181 155 123 118 109 103 104 114 148 135 102 48 29 39 26 -3 -18 -29 -14
125 119 152 159 196 283 191 214 303 106 78 194 227 187 128 105 92 79 87 95 104 119 130 81 90 38 32 28 8 -13 -28 -29
82 108 128 89 127 92 27 79 67 45 128 110 101 128 126 88 93 79 56 66 72 67 67 88 70 50 44 36 11 -0 -8 -13
92 73 78 76 85 130 -13 59 89 195 144 198 141 130 162 60 38 43 49 50 36 29 44 49 52 53 42 21 9 11 6 1
76 73 41 11 40 125 33 5 75 78 61 -15 -15 61 42 34 22 38 29 37 44 51 52 51 55 52 42 26 25 21 18 13
57 55 43 26 18 98 40 79 42 -16 -12 20 10 34 39 17 56 16 37 43 53 63 49 44 33 33 51 42 43 38 38 39
63 54 89 82 121 85 136 78 69 59 6 -8 -24 -0 -2 25 33 8 48 67 70 70 61 70 50 34 30 46 50 52 57 70
43 105 96 105 124 116 93 57 85 60 35 17 -6 -12 -1 23 49 5 34 85 96 85 85 77 72 64 67 46 53 62 81 91
18 34 18 -7 100 73 47 39 88 58 -0 -14 -3 -63 -59 1 -54 7 53 102 80 75 106 103 102 108 125 101 88 74 98 88
-28 -0 28 32 38 47 58 63 134 2 -41 -52 -56 -46 -46 -49 -48 -12 -24 90 109 134 153 148 113 136 139 144 134 158 174 149
2 43 55 -18 -25 -11 91 62 85 6 -35 -102 -70 -57 -85 -76 70 96 89 108 129 147 173 183 173 189 195 203 203 197 187 193
-4 -20 14 16 15 -30 17 -39 -41 31 23 29 -62 -91 -95 -78 -52 62 88 144 156 152 157 175 212 238 268 226 286 265 194 186
18 -37 -37 -61 -89 -102 -116 -81 -15 44 7 -68 -94 -93 -83 -51 -19 49 77 112 107 143 169 185 194 263 331 259 308 327 346 329
63 22 -37 -39 -98 -131 -123 -104 -90 -101 -124 -115 -105 -83 -77 -49 20 71 76 85 151 177 166 207 241 230 266 310 316 301 303 408
61 44 14 -17 -52 -64 -82 -92 -84 -72 -77 -56 -39 -64 -50 -16 52 111 121 160 198 221 226 215 245 223 225 259 332 360 341 396
159 133 42 26 -0 -31 -33 -46 -45 -49 -43 1 12 35 37 63 132 142 173 178 224 241 220 200 238 260 262 274 262 318 281 329

GFSFLT2_con_3kmhel_078.txt.gz
Helicity
159 199 214 169 113 131 123 228 165 243 238 232 197 292 273 264 225 159 111 82 73 72 52 26 11 7 -0 -2 13 23 17 10
192 263 235 204 116 104 148 307 187 345 459 376 195 300 243 235 202 144 99 81 53 60 40 22 10 14 -0 -5 2 10 2 4
226 199 176 150 107 94 88 336 313 171 178 208 237 305 259 264 182 127 96 88 48 26 37 36 31 25 21 15 19 -4 14 4
107 131 139 117 109 85 139 124 227 155 118 206 238 234 207 206 158 117 118 106 71 31 46 66 50 28 22 23 10 -3 3 -4
88 93 146 153 177 189 336 400 525 336 184 215 206 245 242 285 201 148 156 148 119 110 75 43 34 34 18 20 1 -10 -8 -9
101 85 117 141 167 273 371 312 418 337 114 176 200 299 279 246 179 179 139 109 110 76 47 45 56 65 3 14 -4 -13 -12 -3
101 127 118 102 148 236 281 203 138 251 232 123 216 208 202 146 143 131 97 84 79 72 55 56 68 8 28 26 1 -16 -22 -16
107 135 110 72 93 94 119 236 199 127 91 68 151 143 95 100 85 62 62 75 54 60 60 67 27 46 35 12 2 -10 -16 -12
70 99 90 59 94 67 130 275 336 228 49 118 39 67 66 69 56 68 68 55 64 84 54 48 63 33 26 11 12 4 4 7
75 70 79 59 55 51 101 92 144 115 160 148 146 107 114 27 88 61 44 44 59 46 27 52 41 38 31 14 13 13 9 17
86 71 97 68 60 70 109 159 155 206 230 120 60 36 20 125 87 40 31 51 57 26 44 60 43 37 28 28 30 33 28 40
52 66 72 99 86 127 162 176 239 176 238 241 76 -26 28 63 56 42 72 64 42 42 64 74 64 58 60 46 39 44 57 59
33 78 104 113 101 157 120 124 99 113 59 2 -38 2 43 61 50 47 86 37 60 68 83 73 86 86 99 74 58 51 66 91
53 78 65 80 98 147 135 119 79 77 53 33 34 50 40 57 50 74 44 46 64 94 102 104 113 121 108 108 74 78 115 152
61 59 4 11 53 143 130 135 125 97 45 30 11 33 54 52 17 -5 14 50 96 105 120 136 148 138 146 137 102 55 91 123
97 114 73 4 64 84 114 75 80 97 53 85 -52 -55 -45 -48 -51 -0 -4 69 88 108 137 170 189 181 189 193 225 204 128 118
104 124 102 113 55 61 16 -32 -40 50 33 -11 -103 -87 -94 -95 -44 -14 46 90 105 127 169 166 184 219 264 259 269 283 230 215
76 85 54 47 60 38 36 -24 -40 -53 -42 -59 -105 -124 -122 -103 -46 7 52 91 127 130 142 169 191 230 265 278 285 207 194 257
92 92 57 30 16 -24 -47 -64 -80 -70 -59 -65 -82 -99 -104 -72 7 76 104 132 157 194 193 188 206 210 231 248 264 272 289 254
121 120 83 69 32 -12 -60 -111 -129 -156 -160 -129 -128 -87 -54 22 48 109 120 159 184 190 194 203 251 209 163 199 230 255 314 312